Kekaha, HI

4:15 AM HST on February 09, 2016 (GMT -1000)
Barking Sands PMRF

Weather History for PHBK - July, 2013

Change the Weather History Date:

Friday, July 5, 2013

  Actual Average Record
Temperature  
Mean Temperature 78 °F -  
Max Temperature 84 °F 88 °F 92 °F (1967)
Min Temperature 72 °F 67 °F 64 °F (1950)
Cooling Degree Days 13    
Growing Degree Days 28 (Base 50)    
Moisture  
Dew Point 67 °F    
Average Humidity 68    
Maximum Humidity 76    
Minimum Humidity 57    
Precipitation  
Precipitation 0.00 in - - ()
Sea Level Pressure  
Sea Level Pressure 30.02 in    
Wind  
Wind Speed 6 mph (NNE)    
Max Wind Speed 15 mph    
Max Gust Speed 23 mph    
Visibility 10 miles    
Events      
Averages and records for this station are not official NWS values.
T = Trace of Precipitation, MM = Missing Value Source: NWS Daily Summary

Daily Weather History Graph

Daily Weather History Graph

Search for Another Location

Airport or City:

Trip Planner

Search our weather history database for the weather conditions in past years. The results will help you decide how hot, cold, wet, or windy it might be!

Date:

Astronomy

Jul. 05, 2013 Rise Set
Actual Time 6:00 AM HST 7:26 PM HST
Civil Twilight 5:35 AM HST 7:51 PM HST
Nautical Twilight 5:06 AM HST 8:21 PM HST
Astronomical Twilight 4:35 AM HST 8:52 PM HST
Moon 4:02 AM HST (7/5) 5:36 PM HST (7/5)
Length of Visible Light 14h 15m
Length of Day
13h 26m
Waning Crescent, 5% of the Moon is Illuminated
Jul 5
Waning Crescent
Jul 7
New
Jul 15
First Quarter
Jul 22
Full
Jul 29
Last Quarter

Hourly Weather History & Observations

Time (HST) Temp. Heat Index Dew Point Humidity Pressure Visibility Wind Dir Wind Speed Gust Speed Precip Events Conditions
12:56 AM 73.0 °F - 63.0 °F 71% 30.03 in 10.0 mi ESE 3.5 mph - N/A   Clear
1:56 AM 73.0 °F - 63.0 °F 71% 30.02 in 10.0 mi East 5.8 mph - N/A   Clear
2:56 AM 73.0 °F - 64.0 °F 73% 30.02 in 10.0 mi ENE 5.8 mph - N/A   Clear
3:56 AM 72.0 °F - 64.0 °F 76% 30.01 in 10.0 mi ENE 4.6 mph - N/A   Clear
4:56 AM 72.0 °F - 64.0 °F 76% 30.01 in 10.0 mi East 5.8 mph - N/A   Clear
5:56 AM 72.0 °F - 63.0 °F 73% 30.02 in 10.0 mi ENE 4.6 mph - N/A   Clear
6:56 AM 75.0 °F - 66.0 °F 73% 30.03 in 10.0 mi East 3.5 mph - N/A   Clear
7:56 AM 79.0 °F - 66.9 °F 66% 30.05 in 10.0 mi NNW 4.6 mph - N/A   Clear
8:56 AM 79.0 °F - 66.9 °F 66% 30.05 in 10.0 mi NW 5.8 mph - N/A   Clear
9:56 AM 80.1 °F 82.3 °F 66.9 °F 64% 30.05 in 10.0 mi West 4.6 mph - N/A   Clear
10:56 AM 82.0 °F 84.5 °F 66.9 °F 60% 30.05 in 10.0 mi NNW 11.5 mph - N/A   Clear
11:56 AM 84.9 °F 88.2 °F 68.0 °F 57% 30.03 in 10.0 mi North 15.0 mph 23.0 mph N/A   Partly Cloudy
12:56 PM 82.9 °F 86.5 °F 69.1 °F 63% 30.02 in 10.0 mi North 13.8 mph 21.9 mph N/A   Scattered Clouds
1:56 PM 82.9 °F 85.8 °F 68.0 °F 60% 30.01 in 10.0 mi North 13.8 mph 21.9 mph N/A   Overcast
2:56 PM 82.9 °F 86.5 °F 69.1 °F 63% 30.00 in 10.0 mi NNW 10.4 mph - N/A   Overcast
3:08 PM 82.4 °F 86.3 °F 69.8 °F 66% 29.98 in 10.0 mi NNE 13.8 mph 21.9 mph N/A   Overcast
3:56 PM 81.0 °F 84.1 °F 69.1 °F 67% 29.98 in 10.0 mi South 4.6 mph - N/A   Overcast
4:56 PM 84.0 °F 87.8 °F 69.1 °F 61% 29.97 in 10.0 mi North 15.0 mph - N/A   Mostly Cloudy
5:56 PM 82.9 °F 87.0 °F 70.0 °F 65% 29.97 in 10.0 mi North 13.8 mph - N/A   Clear
6:56 PM 81.0 °F 83.8 °F 68.0 °F 65% 29.98 in 10.0 mi Calm Calm - N/A   Clear
7:56 PM 78.1 °F - 68.0 °F 71% 30.00 in 10.0 mi SE 3.5 mph - N/A   Partly Cloudy
8:56 PM 77.0 °F - 68.0 °F 74% 30.02 in 10.0 mi East 3.5 mph - N/A   Clear
9:56 PM 77.0 °F - 68.0 °F 74% 30.04 in 10.0 mi Calm Calm - N/A   Clear
10:56 PM 75.9 °F - 66.0 °F 71% 30.05 in 10.0 mi Calm Calm - N/A   Clear
11:56 PM 73.9 °F - 66.0 °F 76% 30.05 in 10.0 mi ENE 4.6 mph - N/A   Clear